Location: Monfort
(47.1967°N, 0.2115°W)
Time: 11:29:52
(UTC+00:00)

ARGOS - Pass Details

Date: 24 October 2020
Orbit: 820 x 835 km, 98.4° (Epoch: 27 November)

Event Time Altitude Azimuth Distance (km) Brightness Sun altitude
Exits shadow 18:09:08 12° 118° (ESE) 2,274 4.9 -12.9°
Maximum altitude 18:13:14 30° 63° (ENE) 1,474 4.0 -13.6°
Drops below altitude 10° 18:17:52 10° 5° (N) 2,458 5.5 -14.4°
Sets 18:20:29 0° 354° (N) 3,397 6.4 -14.9°
